Location: Joplin, MO
(37.0842°N, 94.5133°W)
Time: 20:36:45
(UTC+02:00)

Courier 1B Rocket - Pass Details

Date: 03 April 2023
Orbit: 920 x 1202 km, 28.2° (Epoch: 05 June)

Event Time Altitude Azimuth Distance (km) Brightness Sun altitude
Rises 04:14:34 0° 263° (W) 3,994 9.3 -18.8°
Reaches altitude 10° 04:17:41 10° 255° (WSW) 2,993 8.3 -19.3°
Maximum altitude 04:24:13 35° 192° (SSW) 1,643 6.1 -20.5°
Enters shadow 04:26:46 27° 154° (SSE) 1,881 6.1 -21.0°
Drops below altitude 10° 04:30:21 10° 129° (SE) 2,801 - -21.7°
Sets 04:33:10 0° 121° (ESE) 3,708 - -22.2°
